Printer-friendly version

IAU Minor Planet Center

Minor Planet Center

MPEC 2006-L39 : 2002 FW6, 2003 LA7

The following Minor Planet Electronic Circular may be linked-to from your own Web pages, but must not otherwise be redistributed electronically.


Read MPEC 2006-L38 Read MPEC 2006-L40


M.P.E.C. 2006-L39                                Issued 2006 June 8, 23:32 UT

     The Minor Planet Electronic Circulars contain information on unusual
         minor planets and routine data on comets.  They are published
   on behalf of Commission 20 of the International Astronomical Union by the
          Minor Planet Center, Smithsonian Astrophysical Observatory,
                          Cambridge, MA 02138, U.S.A.

                  Supported in part by the Brinson Foundation
                  Supported in part by the TABASGO Foundation
             Prepared using the Tamkin Foundation Computer Network

                              MPC@CFA.HARVARD.EDU
          URL http://cfa-www.harvard.edu/iau/mpc.html  ISSN 1523-6714

                              2002 FW6, 2003 LA7

                      Revision to MPEC 2002-F75, 2003-N18

Additional Observations:
     K02F06W  C2006 04 26.07273 12 35 21.30 -01 30 54.1          22.3 R EL039807
     K02F06W  C2006 04 26.15609 12 35 20.95 -01 30 51.7                 EL039807
     K02F06W  C2006 04 27.09725 12 35 17.07 -01 30 28.3                 EL039807
     K03L07A  C2005 08 08.02161 15 49 44.21 -22 44 47.1          22.2 R EL039807
     K03L07A  C2005 08 09.02980 15 49 43.86 -22 44 43.7                 EL039807
     K03L07A  C2005 08 10.02349 15 49 43.61 -22 44 40.5                 EL039807
     K03L07A  C2006 04 26.24200 16 01 35.71 -23 26 42.3          22.1 R EL039807
     K03L07A  C2006 04 26.32636 16 01 35.31 -23 26 41.4                 EL039807
     K03L07A  C2006 04 27.29302 16 01 31.29 -23 26 33.5                 EL039807

Observer details:
807 Cerro Tololo.  Observers M. W. Buie, R. L. Millis, S. D. Kern, L. H.
    Wasserman, D. E. Trilling, R. A. Crudo.  4-m f/2.9 reflector + CCD.

Orbital elements:
2002 FW6
Epoch 2006 Mar. 6.0 TT = JDT 2453800.5                  MPC
M 238.28029              (2000.0)            P               Q
n   0.00443991     Peri.  170.37627     +0.80887539     +0.58734314
a  36.6623425      Node   153.59620     -0.54347022     +0.76459446
e   0.1478438      Incl.    3.52754     -0.22441194     +0.26537397
P 222              H    8.1           G   0.15           U   7
Residuals in seconds of arc
K023K  568  0.1+  0.3+    K023M  568  0.1-  0.3+    K064Q  807  0.1-  0.1+
K023K  568  0.2+  0.1+    K0263  675  0.6-  0.3-    K064Q  807  0.0   0.4+
K023K  568  0.1+  0.1-    K0268  675  0.1+  0.4-    K064R  807  0.1+  0.4-
K023M  568  0.0   0.3+    K0268  675  0.1+  0.3-

2003 LA7
Epoch 2006 Mar. 6.0 TT = JDT 2453800.5                  MPC
M 340.96774              (2000.0)            P               Q
n   0.00146925     Peri.  271.15377     +0.57412357     +0.81692107
a  76.6313551      Node    34.07387     -0.70677153     +0.52836829
e   0.5291124      Incl.    5.63099     -0.41334746     +0.23122914
P 671              H    6.6           G   0.15           U   3
Residuals in seconds of arc
K0361  807  0.2-  0.0     K0378  568  0.1-  0.2-    K058A  807  0.1+  0.1-
K0362  807  0.1+  0.0     K0378  568  0.1+  0.6+    K064Q  807  0.3+  0.1+
K0362  807  0.0   0.2-    K0588  807  0.1-  0.1-    K064Q  807  0.3-  0.2+
K0377  568  0.1+  0.1-    K0589  807  0.0   0.1-    K064R  807  0.1+  0.1-

Ephemerides:
2002 FW6                 a,e,i = 36.66, 0.15, 4                  q = 31.242
Date    TT    R. A. (2000) Decl.     Delta      r     Elong.  Phase     V
2006 06 04    12 33.41   -01 19.5   39.560   39.999   115.0     1.3    24.3
2006 06 14    12 33.22   -01 18.7   39.714   39.996   105.4     1.4    24.3
2006 06 24    12 33.17   -01 18.9   39.877   39.993    95.8     1.4    24.3
2006 07 04    12 33.28   -01 20.0   40.042   39.990    86.3     1.5    24.3
2006 07 14    12 33.53   -01 22.1   40.205   39.987    76.9     1.4    24.3
2006 07 24    12 33.93   -01 25.1   40.362   39.984    67.5     1.3    24.3
2006 08 03    12 34.47   -01 28.9   40.508   39.981    58.1     1.2    24.3
2006 08 13    12 35.12   -01 33.4   40.640   39.978    48.7     1.1    24.3
2006 08 23    12 35.89   -01 38.6   40.752   39.975    39.3     0.9    24.3

2003 LA7                 a,e,i = 76.63, 0.53, 6                  q = 36.085
Date    TT    R. A. (2000) Decl.     Delta      r     Elong.  Phase     V
2006 06 04    15 58.60   -23 19.5   43.361   44.356   168.8     0.3    23.1
2006 06 14    15 57.84   -23 17.4   43.395   44.346   159.2     0.5    23.1
2006 06 24    15 57.14   -23 15.3   43.455   44.335   149.6     0.7    23.1
2006 07 04    15 56.53   -23 13.4   43.541   44.324   139.9     0.8    23.2
2006 07 14    15 56.02   -23 11.7   43.649   44.313   130.3     1.0    23.2
2006 07 24    15 55.64   -23 10.2   43.775   44.302   120.7     1.1    23.2
2006 08 03    15 55.40   -23 09.1   43.916   44.291   111.1     1.2    23.2
2006 08 13    15 55.31   -23 08.4   44.067   44.280   101.5     1.3    23.2
2006 08 23    15 55.37   -23 08.2   44.224   44.269    91.9     1.3    23.2
2006 09 02    15 55.59   -23 08.4   44.383   44.259    82.3     1.3    23.2
2006 09 12    15 55.97   -23 09.1   44.537   44.248    72.7     1.2    23.2
2006 09 22    15 56.50   -23 10.2   44.682   44.237    63.1     1.2    23.2
2006 10 02    15 57.17   -23 11.8   44.815   44.226    53.4     1.0    23.2
2006 10 12    15 57.96   -23 13.8   44.930   44.215    43.8     0.9    23.2
2006 10 22    15 58.85   -23 16.1   45.025   44.204    34.1     0.7    23.2

Brian G. Marsden             (C) Copyright 2006 MPC           M.P.E.C. 2006-L39

Read MPEC 2006-L38 Read MPEC 2006-L40


Our Web policy. Index to the CBAT/MPC/ICQ pages.


Valid HTML 4.01!